OBJECT D, 60015

Orbit data source: Space-Track

You're viewing an uncataloged RSO

Recently launched and/or uncataloged RSOs may have evolving metadata. Metadata may include the following, but is not limited to: Owner, Manufacturer, Bus, Motor, and Mission.

OBJECT D, 60015 is a satellite owned by Tsinghua (CN) in SSO that was launched on Thu, 06 Jun 2024 UTC via a GUSHENXING 1 launch vehicle from the Jiuquan Satellite Launch Center, China (JSC). Unknown objects in Earth's orbit typically refer to objects detected orbiting the Earth but have not yet been identified or cataloged. These objects could be anything from previously untracked satellites, spent rocket stages, debris from satellite collisions, or even natural meteoroids temporarily captured by Earth's gravity.

Loading next visibility...
Identifier
60015, 2024-110D
Orbit
SSO
Country
Flag of CNCN / PRC
Related business
Manufacturer
Tsinghua
Mission
Commercial Technology
Bus & Motor
NAXING, EDGE
Mass
20 kg wet, 20 kg dry
Launch date (UTC)
2024-06-06 (2 years ago)
Launch vehicle
GUSHENXING 1
Launch site
Jiuquan Satellite Launch Center, China (JSC)
Object type
Unknown
Shape & HBR
Box, 0.3 m
Radar Cross Section
0.240 m², Medium (>0.1 m² and < 1m²)

Expand to show TLE details & history
Last TLE update: 12 hours ago

TLE from 12 hours ago
0 OBJECT D
1 60015U 24110D   26263.24623743  .00003086  00000-0  12577-3 0  9992
2 60015  97.5752   1.5465 0008160 278.1863  81.8448 15.25221469126740
Epoch: 2026-09-20T05:54Z
TLE epoch observation values (Epoch: 2026-09-20T05:54:34.913Z)
Latitude
-0.00013°
Longitude
-86.24213°
Altitude
492.422 km
Speed
7.619 km/s
True Right ascension
00h 06m 11s
True Declination
0° 00' 00"
Sunlit
Object was in full shadow at epoch
Visualization orbit readout
Latitude
Unknown
Longitude
Unknown
Altitude
Unknown
Speed
Unknown
Apparent Right ascension
Unknown
Apparent Declination
Unknown
Sunlit
N/A
Visualization observer readout
Local Sidereal Time
11:19:10
Azimuth
Unknown
Elevation
Unknown
Doppler factor
Unknown
Orbital elements
Apogee altitude
492.689 km
Perigee altitude
481.485 km
Semi-major axis
6,865.224 km
Eccentricity
0.00082
Inclination
97.5752°
RAAN
1.5465°
Arg. of periapsis
278.1863°
True anomaly
81.93737°
Mean anomaly
81.8448°
Eccentric anomaly
81.89109°
Mean motion
3.81558 °/min
Orbital period
94.35 mins
BSTAR
0.00012577
Loading maneuver chart data...
Computing Atmospheric mass density...
Loading historical data...
Loading historical data...
Loading historical data...
Loading historical data...
Loading historical data...
Loading historical data...
Loading historical data...
Other satellites on launch #110 in the year 2024 (2024-06-06 UTC)

Documentation

Showing up to 5 results
|